Grand Marais, MN

8:53 AM CDT on April 24, 2018 (GMT -0500)
Grand Marais

Weather History for KGNA - April, 2014

Change the Weather History Date:

Monday, April 14, 2014

  Actual Average (KCKC) Record (KCKC)
Temperature  
Mean Temperature 26 °F -  
Max Temperature 33 °F 42 °F 75 °F (2003)
Min Temperature 19 °F 25 °F 3 °F (1998)
Degree Days  
Heating Degree Days 40    
Moisture  
Dew Point 7 °F    
Average Humidity 45    
Maximum Humidity 58    
Minimum Humidity 29    
Precipitation  
Precipitation 0.00 in - - ()
Sea Level Pressure  
Sea Level Pressure 30.02 in    
Wind  
Wind Speed 16 mph (NNW)    
Max Wind Speed 26 mph    
Max Gust Speed 52 mph    
Averages and records for this station are not official NWS values.
T = Trace of Precipitation, MM = Missing Value Source: NWS Daily Summary

Daily Weather History Graph

Daily Weather History Graph

Search for Another Location

Airport or City:

Astronomy

Apr. 14, 2014 Rise Set
Actual Time 6:14 AM CDT 7:49 PM CDT
Civil Twilight 5:41 AM CDT 8:22 PM CDT
Nautical Twilight 5:02 AM CDT 9:01 PM CDT
Astronomical Twilight 4:19 AM CDT 9:45 PM CDT
Moon 7:28 PM CDT (4/14) 5:49 AM CDT (4/14)
Length of Visible Light 14h 40m
Length of Day
13h 35m
Full, 100% of the Moon is Illuminated
Apr 14
Full
Apr 15
Full
Apr 22
Last Quarter
Apr 29
New
May 6
First Quarter

Hourly Weather History & Observations

Time (CDT) Temp. Windchill Dew Point Humidity Pressure Visibility Wind Dir Wind Speed Gust Speed Precip Events Conditions
12:56 AM 30.9 °F 17.8 °F 17.1 °F 57% 29.92 in - North 23.0 mph 38.0 mph N/A   Unknown
1:56 AM 28.9 °F 14.5 °F 14.0 °F 54% 29.91 in - North 25.3 mph 41.4 mph N/A   Unknown
2:56 AM 27.0 °F 11.6 °F 10.9 °F 51% 29.88 in - North 26.5 mph 51.8 mph N/A   Unknown
3:56 AM 26.1 °F 12.0 °F 12.0 °F 55% 29.86 in - North 20.7 mph 40.3 mph N/A   Unknown
4:56 AM 25.0 °F 9.9 °F 12.0 °F 58% 29.85 in - North 23.0 mph 47.2 mph N/A   Unknown
5:56 AM 23.0 °F 6.6 °F 9.0 °F 55% 29.86 in - North 25.3 mph 48.3 mph N/A   Unknown
6:56 AM 21.0 °F 14.6 °F 7.0 °F 55% 29.95 in - Variable 4.6 mph - N/A   Unknown
7:56 AM 21.9 °F 10.4 °F 6.1 °F 51% 30.00 in - North 11.5 mph 24.2 mph N/A   Unknown
8:56 AM 23.0 °F 12.4 °F 7.0 °F 50% 30.02 in - NNE 10.4 mph 18.4 mph N/A   Unknown
9:56 AM 25.0 °F 17.1 °F 7.0 °F 46% 30.04 in - Variable 6.9 mph 20.7 mph N/A   Unknown
10:56 AM 27.0 °F 18.7 °F 8.1 °F 45% 30.05 in - NW 8.1 mph 20.7 mph N/A   Unknown
11:56 AM 28.0 °F 17.5 °F 7.0 °F 41% 30.06 in - NW 12.7 mph 20.7 mph N/A   Unknown
12:56 PM 30.0 °F 21.1 °F 3.9 °F 33% 30.05 in - NNW 10.4 mph 21.9 mph N/A   Unknown
1:56 PM 30.0 °F 20.5 °F 3.0 °F 32% 30.06 in - North 11.5 mph - N/A   Unknown
2:56 PM 30.9 °F 27.5 °F 3.0 °F 31% 30.06 in - Variable 3.5 mph - N/A   Unknown
3:56 PM 32.0 °F 25.6 °F 3.0 °F 29% 30.06 in - Variable 6.9 mph - N/A   Unknown
4:56 PM 30.9 °F 26.2 °F 3.0 °F 31% 30.05 in - Variable 4.6 mph 19.6 mph N/A   Unknown
5:56 PM 30.0 °F 21.7 °F 3.0 °F 32% 30.06 in - NNW 9.2 mph 19.6 mph N/A   Unknown
6:56 PM 27.0 °F 21.6 °F 1.9 °F 34% 30.08 in - Variable 4.6 mph - N/A   Unknown
7:56 PM 26.1 °F 17.6 °F 1.9 °F 35% 30.09 in - North 8.1 mph - N/A   Unknown
8:56 PM 24.1 °F 19.7 °F 5.0 °F 44% 30.12 in - North 3.5 mph - N/A   Unknown
9:56 PM 21.0 °F 14.6 °F 7.0 °F 55% 30.12 in - NNW 4.6 mph - N/A   Unknown
10:56 PM 19.9 °F 12.1 °F 7.0 °F 57% 30.11 in - NNW 5.8 mph - N/A   Unknown
11:56 PM 19.9 °F 12.1 °F 7.0 °F 57% 30.10 in - NNW 5.8 mph - N/A   Unknown